26-11-2023, 00:00:04,    248,    0.0,   -1.3,   0.00,   0.00, 1016.0,    0.7, -999.0
26-11-2023, 00:00:15,    248,    0.0,   -1.3,   0.00,   0.00, 1016.0,    0.5, -999.0
26-11-2023, 00:00:24,    248,    0.0,   -1.2,   0.00,   0.00, 1016.1,    0.5, -999.0
26-11-2023, 00:00:34,    248,    0.0,   -1.3,   0.00,   0.00, 1016.0,    0.5, -999.0
26-11-2023, 00:00:44,    248,    0.0,   -1.3,   0.00,   0.00, 1016.0,    1.0, -999.0
26-11-2023, 00:00:54,    248,    0.0,   -1.3,   0.00,   0.00, 1016.0,    0.9, -999.0
26-11-2023, 00:01:04,    248,    0.0,   -1.3,   0.00,   0.00, 1016.0,    0.8, -999.0
26-11-2023, 00:01:14,    248,    0.0,   -1.4,   0.00,   0.00, 1016.0,    0.9, -999.0
26-11-2023, 00:01:24,    248,    0.0,   -1.3,   0.00,   0.00, 1016.0,    0.7, -999.0
26-11-2023, 00:01:34,    248,    0.0,   -1.2,   0.00,   0.00, 1016.0,    0.5, -999.0
26-11-2023, 00:01:44,    248,    0.0,   -1.2,   0.00,   0.00, 1016.0,    0.4, -999.0
26-11-2023, 00:01:54,    248,    0.0,   -1.3,   0.00,   0.00, 1016.0,    0.5, -999.0
26-11-2023, 00:02:04,    219,    0.0,   -1.3,   0.00,   0.00, 1016.0,    0.7, -999.0
26-11-2023, 00:02:14,    218,    0.0,   -1.3,   0.00,   0.00, 1015.9,    0.4, -999.0
26-11-2023, 00:02:24,    218,    0.0,   -1.3,   0.00,   0.00, 1016.0,    0.6, -999.0
26-11-2023, 00:02:34,    218,    0.0,   -1.2,   0.00,   0.00, 1016.0,    0.3, -999.0
26-11-2023, 00:02:44,    218,    0.0,   -1.3,   0.00,   0.00, 1016.0,    0.7, -999.0
26-11-2023, 00:02:54,    218,    0.0,   -1.3,   0.00,   0.00, 1016.0,    0.6, -999.0
26-11-2023, 00:03:04,    218,    0.0,   -1.2,   0.00,   0.00, 1016.0,    0.6, -999.0
26-11-2023, 00:03:14,    218,    0.0,   -1.2,   0.00,   0.00, 1016.0,    0.5, -999.0
26-11-2023, 00:03:24,    219,    0.0,   -1.3,   0.00,   0.00, 1016.0,    0.8, -999.0
26-11-2023, 00:03:34,    218,    0.0,   -1.3,   0.00,   0.00, 1016.0,    0.7, -999.0
26-11-2023, 00:03:44,    218,    0.0,   -1.3,   0.00,   0.00, 1016.0,    0.3, -999.0
26-11-2023, 00:03:54,    219,    0.0,   -1.2,   0.00,   0.00, 1016.0,    0.5, -999.0
26-11-2023, 00:04:04,    218,    0.0,   -1.3,   0.00,   0.00, 1016.0,    0.4, -999.0
26-11-2023, 00:04:14,    218,    0.0,   -1.3,   0.00,   0.00, 1016.0,    0.5, -999.0
26-11-2023, 00:04:24,    218,    0.0,   -1.2,   0.00,   0.00, 1016.0,    0.8, -999.0
26-11-2023, 00:04:34,    218,    0.0,   -1.2,   0.00,   0.00, 1016.0,    0.0, -999.0
26-11-2023, 00:04:44,    218,    0.0,   -1.3,   0.00,   0.00, 1015.9,    0.5, -999.0
26-11-2023, 00:04:54,    218,    0.0,   -1.4,   0.00,   0.00, 1016.0,    0.8, -999.0
26-11-2023, 00:05:04,    218,    0.0,   -1.4,   0.00,   0.00, 1016.0,    0.8, -999.0
26-11-2023, 00:05:14,    223,    0.0,   -1.3,   0.00,   0.00, 1016.0,    0.9, -999.0
26-11-2023, 00:05:24,    223,    0.0,   -1.3,   0.00,   0.00, 1015.9,    0.6, -999.0
26-11-2023, 00:05:34,    231,    0.0,   -1.4,   0.00,   0.00, 1016.0,    0.9, -999.0
26-11-2023, 00:05:44,    231,    0.0,   -1.3,   0.00,   0.00, 1015.9,    0.6, -999.0
26-11-2023, 00:05:54,    231,    0.0,   -1.3,   0.00,   0.00, 1015.9,    0.1, -999.0
26-11-2023, 00:06:04,    231,    0.0,   -1.3,   0.00,   0.00, 1016.0,    0.5, -999.0
26-11-2023, 00:06:14,    231,    0.0,   -1.3,   0.00,   0.00, 1015.9,    0.6, -999.0
26-11-2023, 00:06:24,    231,    0.0,   -1.3,   0.00,   0.00, 1016.0,    0.3, -999.0
26-11-2023, 00:06:34,    231,    0.0,   -1.3,   0.00,   0.00, 1015.9,    0.5, -999.0
26-11-2023, 00:06:43,    230,    0.0,   -1.4,   0.00,   0.00, 1015.9,    0.9, -999.0
26-11-2023, 00:06:54,    231,    0.0,   -1.3,   0.00,   0.00, 1015.9,    0.7, -999.0
26-11-2023, 00:07:04,    231,    0.0,   -1.3,   0.00,   0.00, 1015.9,    0.7, -999.0
26-11-2023, 00:07:13,    227,    0.0,   -1.4,   0.00,   0.00, 1016.0,    0.6, -999.0
26-11-2023, 00:07:24,    231,    0.0,   -1.3,   0.00,   0.00, 1016.0,    0.7, -999.0
26-11-2023, 00:07:34,    231,    0.0,   -1.3,   0.00,   0.00, 1015.9,    0.7, -999.0
26-11-2023, 00:07:44,    230,    0.0,   -1.3,   0.00,   0.00, 1015.9,    0.5, -999.0
26-11-2023, 00:07:53,    230,    0.0,   -1.3,   0.00,   0.00, 1016.0,    0.5, -999.0
26-11-2023, 00:08:04,    231,    0.0,   -1.3,   0.00,   0.00, 1016.0,    0.3, -999.0
26-11-2023, 00:08:14,    230,    0.0,   -1.4,   0.00,   0.00, 1015.9,    0.6, -999.0
26-11-2023, 00:08:23,    230,    0.0,   -1.4,   0.00,   0.00, 1016.0,    0.6, -999.0
26-11-2023, 00:08:33,    232,    0.0,   -1.3,   0.00,   0.00, 1015.9,    0.6, -999.0
26-11-2023, 00:08:44,    231,    0.0,   -1.4,   0.00,   0.00, 1015.9,    0.6, -999.0
26-11-2023, 00:08:54,    231,    0.0,   -1.4,   0.00,   0.00, 1015.9,    0.8, -999.0
26-11-2023, 00:09:03,    231,    0.0,   -1.2,   0.00,   0.00, 1015.9,    0.4, -999.0
26-11-2023, 00:09:13,    231,    0.0,   -1.4,   0.00,   0.00, 1015.9,    0.5, -999.0
26-11-2023, 00:09:24,    231,    0.0,   -1.3,   0.00,   0.00, 1016.0,    0.7, -999.0
26-11-2023, 00:09:33,    231,    0.0,   -1.4,   0.00,   0.00, 1015.9,    0.6, -999.0
26-11-2023, 00:09:43,    231,    0.0,   -1.4,   0.00,   0.00, 1015.9,    0.5, -999.0
26-11-2023, 00:09:53,    231,    0.0,   -1.4,   0.00,   0.00, 1015.9,    0.5, -999.0
26-11-2023, 00:10:04,    232,    0.0,   -1.4,   0.00,   0.00, 1016.0,    0.3, -999.0
26-11-2023, 00:10:13,    253,    0.0,   -1.3,   0.00,   0.00, 1015.9,    0.8, -999.0
26-11-2023, 00:10:23,    253,    0.0,   -1.3,   0.00,   0.00, 1015.9,    0.7, -999.0
26-11-2023, 00:10:33,    254,    0.0,   -1.3,   0.00,   0.00, 1015.9,    0.6, -999.0
26-11-2023, 00:10:43,    254,    0.0,   -1.4,   0.00,   0.00, 1015.9,    0.4, -999.0
26-11-2023, 00:10:53,    254,    0.0,   -1.3,   0.00,   0.00, 1016.0,    0.5, -999.0
26-11-2023, 00:11:03,    253,    0.0,   -1.4,   0.00,   0.00, 1015.9,    0.6, -999.0
26-11-2023, 00:11:13,    253,    0.0,   -1.4,   0.00,   0.00, 1015.9,    0.5, -999.0
26-11-2023, 00:11:23,    253,    0.0,   -1.3,   0.00,   0.00, 1016.0,    0.5, -999.0
26-11-2023, 00:11:33,    250,    0.0,   -1.4,   0.00,   0.00, 1015.9,    0.5, -999.0
26-11-2023, 00:11:43,    253,    0.0,   -1.3,   0.00,   0.00, 1015.9,    0.4, -999.0
26-11-2023, 00:11:53,    253,    0.0,   -1.4,   0.00,   0.00, 1016.0,    0.8, -999.0
26-11-2023, 00:12:03,    253,    0.0,   -1.4,   0.00,   0.00, 1016.0,    0.0, -999.0
26-11-2023, 00:12:13,    253,    0.0,   -1.4,   0.00,   0.00, 1015.9,    0.9, -999.0
26-11-2023, 00:12:23,    254,    0.0,   -1.4,   0.00,   0.00, 1015.9,    0.8, -999.0
26-11-2023, 00:12:33,    254,    0.0,   -1.4,   0.00,   0.00, 1015.9,    0.6, -999.0
26-11-2023, 00:12:43,    253,    0.0,   -1.4,   0.00,   0.00, 1015.9,    0.6, -999.0
26-11-2023, 00:12:53,    254,    0.0,   -1.4,   0.00,   0.00, 1015.9,    0.5, -999.0
26-11-2023, 00:13:03,    253,    0.0,   -1.4,   0.00,   0.00, 1015.9,    0.5, -999.0
26-11-2023, 00:13:13,    253,    0.0,   -1.5,   0.00,   0.00, 1016.0,    0.5, -999.0
26-11-2023, 00:13:23,    253,    0.0,   -1.5,   0.00,   0.00, 1016.0,    0.5, -999.0
26-11-2023, 00:13:33,    253,    0.0,   -1.6,   0.00,   0.00, 1015.9,    0.5, -999.0
26-11-2023, 00:13:43,    253,    0.0,   -1.5,   0.00,   0.00, 1015.9,    0.3, -999.0
26-11-2023, 00:13:53,    254,    0.0,   -1.4,   0.00,   0.00, 1015.9,    0.2, -999.0
26-11-2023, 00:14:03,    254,    0.0,   -1.4,   0.00,   0.00, 1015.9,    0.4, -999.0
26-11-2023, 00:14:13,    253,    0.0,   -1.4,   0.00,   0.00, 1015.9,    0.6, -999.0
26-11-2023, 00:14:23,    253,    0.0,   -1.5,   0.00,   0.00, 1015.9,    0.4, -999.0
26-11-2023, 00:14:33,    254,    0.0,   -1.5,   0.00,   0.00, 1015.9,    0.3, -999.0
26-11-2023, 00:14:43,    254,    0.0,   -1.4,   0.00,   0.00, 1015.9,    0.2, -999.0
26-11-2023, 00:14:53,    253,    0.0,   -1.5,   0.00,   0.00, 1015.9,    0.5, -999.0
26-11-2023, 00:15:03,    254,    0.0,   -1.5,   0.00,   0.00, 1016.0,    0.8, -999.0
26-11-2023, 00:15:13,    254,    0.0,   -1.5,   0.00,   0.00, 1015.9,    0.7, -999.0
26-11-2023, 00:15:23,    254,    0.0,   -1.5,   0.00,   0.00, 1015.9,    0.3, -999.0
26-11-2023, 00:15:33,    253,    0.0,   -1.4,   0.00,   0.00, 1015.9,    0.7, -999.0
26-11-2023, 00:15:43,    254,    0.0,   -1.4,   0.00,   0.00, 1015.9,    0.2, -999.0
26-11-2023, 00:15:53,    253,    0.0,   -1.5,   0.00,   0.00, 1015.9,    0.8, -999.0
26-11-2023, 00:16:03,    254,    0.0,   -1.4,   0.00,   0.00, 1015.9,    0.8, -999.0
26-11-2023, 00:16:13,    254,    0.0,   -1.5,   0.00,   0.00, 1015.9,    0.1, -999.0
26-11-2023, 00:16:22,    254,    0.0,   -1.5,   0.00,   0.00, 1015.9,    0.6, -999.0
26-11-2023, 00:16:33,    254,    0.0,   -1.4,   0.00,   0.00, 1016.0,    0.4, -999.0
26-11-2023, 00:16:43,    254,    0.0,   -1.4,   0.00,   0.00, 1015.9,    0.6, -999.0
26-11-2023, 00:16:53,    255,    0.0,   -1.5,   0.00,   0.00, 1015.9,    0.7, -999.0
26-11-2023, 00:17:03,    253,    0.0,   -1.5,   0.00,   0.00, 1015.9,    0.4, -999.0
26-11-2023, 00:17:13,    253,    0.0,   -1.6,   0.00,   0.00, 1015.9,    0.4, -999.0
26-11-2023, 00:17:23,    258,    0.0,   -1.5,   0.00,   0.00, 1015.9,    0.5, -999.0
26-11-2023, 00:17:32,    253,    0.0,   -1.4,   0.00,   0.00, 1015.9,    0.5, -999.0
26-11-2023, 00:17:43,    254,    0.0,   -1.6,   0.00,   0.00, 1015.9,    0.7, -999.0
26-11-2023, 00:17:53,    254,    0.0,   -1.5,   0.00,   0.00, 1015.9,    0.5, -999.0
26-11-2023, 00:18:03,    254,    0.0,   -1.6,   0.00,   0.00, 1015.9,    0.4, -999.0
26-11-2023, 00:18:12,    253,    0.0,   -1.5,   0.00,   0.00, 1015.9,    0.5, -999.0
26-11-2023, 00:18:23,    253,    0.0,   -1.5,   0.00,   0.00, 1015.9,    0.6, -999.0
26-11-2023, 00:18:33,    253,    0.0,   -1.5,   0.00,   0.00, 1015.9,    0.5, -999.0
26-11-2023, 00:18:42,    254,    0.0,   -1.5,   0.00,   0.00, 1015.9,    0.4, -999.0
26-11-2023, 00:18:52,    254,    0.0,   -1.5,   0.00,   0.00, 1015.9,    0.5, -999.0
26-11-2023, 00:19:03,    254,    0.0,   -1.5,   0.00,   0.00, 1015.9,    0.7, -999.0
26-11-2023, 00:19:13,    254,    0.0,   -1.5,   0.00,   0.00, 1015.9,    0.4, -999.0
26-11-2023, 00:19:22,    253,    0.0,   -1.5,   0.00,   0.00, 1015.9,    0.6, -999.0
26-11-2023, 00:19:32,    254,    0.0,   -1.5,   0.00,   0.00, 1015.9,    0.6, -999.0
26-11-2023, 00:19:43,    254,    0.0,   -1.5,   0.00,   0.00, 1015.9,    0.5, -999.0
26-11-2023, 00:19:52,    253,    0.0,   -1.5,   0.00,   0.00, 1015.9,    0.6, -999.0
26-11-2023, 00:20:02,    254,    0.0,   -1.5,   0.00,   0.00, 1015.9,    0.5, -999.0
26-11-2023, 00:20:12,    254,    0.0,   -1.5,   0.00,   0.00, 1015.9,    0.7, -999.0
26-11-2023, 00:20:22,    254,    0.0,   -1.6,   0.00,   0.00, 1015.9,    0.4, -999.0
26-11-2023, 00:20:32,    224,    0.0,   -1.5,   0.00,   0.00, 1015.9,    0.6, -999.0
26-11-2023, 00:20:42,    225,    0.0,   -1.5,   0.00,   0.00, 1015.9,    0.6, -999.0
26-11-2023, 00:20:52,    253,    0.0,   -1.6,   0.00,   0.00, 1015.9,    0.5, -999.0
26-11-2023, 00:21:02,    253,    0.0,   -1.6,   0.00,   0.00, 1015.9,    0.1, -999.0
26-11-2023, 00:21:12,    253,    0.0,   -1.5,   0.00,   0.00, 1015.9,    0.6, -999.0
26-11-2023, 00:21:22,    253,    0.0,   -1.5,   0.00,   0.00, 1015.9,    0.9, -999.0
26-11-2023, 00:21:32,    252,    0.0,   -1.6,   0.00,   0.00, 1015.9,    0.9, -999.0
26-11-2023, 00:21:42,    253,    0.0,   -1.6,   0.00,   0.00, 1015.9,    0.5, -999.0
26-11-2023, 00:21:52,    253,    0.0,   -1.5,   0.00,   0.00, 1015.9,    0.5, -999.0
26-11-2023, 00:22:02,    252,    0.0,   -1.6,   0.00,   0.00, 1015.9,    0.3, -999.0
26-11-2023, 00:22:12,    253,    0.0,   -1.5,   0.00,   0.00, 1015.9,    0.3, -999.0
26-11-2023, 00:22:22,    253,    0.0,   -1.7,   0.00,   0.00, 1015.9,    0.3, -999.0
26-11-2023, 00:22:32,    253,    0.0,   -1.6,   0.00,   0.00, 1016.0,    0.6, -999.0
26-11-2023, 00:22:42,    252,    0.0,   -1.5,   0.00,   0.00, 1015.9,    0.6, -999.0
26-11-2023, 00:22:52,    253,    0.0,   -1.5,   0.00,   0.00, 1015.9,    0.1, -999.0
26-11-2023, 00:23:02,    253,    0.0,   -1.6,   0.00,   0.00, 1016.0,    0.3, -999.0
26-11-2023, 00:23:12,    253,    0.0,   -1.6,   0.00,   0.00, 1016.0,    0.9, -999.0
26-11-2023, 00:23:22,    253,    0.0,   -1.6,   0.00,   0.00, 1016.0,    0.6, -999.0
26-11-2023, 00:23:32,    252,    0.0,   -1.6,   0.00,   0.00, 1015.9,    0.8, -999.0
26-11-2023, 00:23:42,    251,    0.0,   -1.6,   0.00,   0.00, 1015.9,    0.3, -999.0
26-11-2023, 00:23:52,    252,    0.0,   -1.5,   0.00,   0.00, 1015.9,    0.4, -999.0
26-11-2023, 00:24:02,    251,    0.0,   -1.7,   0.00,   0.00, 1015.9,    0.6, -999.0
26-11-2023, 00:24:12,    251,    0.0,   -1.7,   0.00,   0.00, 1015.9,    0.2, -999.0
26-11-2023, 00:24:22,    252,    0.0,   -1.6,   0.00,   0.00, 1016.0,    0.4, -999.0
26-11-2023, 00:24:32,    251,    0.0,   -1.6,   0.00,   0.00, 1015.9,    0.6, -999.0
26-11-2023, 00:24:42,    252,    0.0,   -1.6,   0.00,   0.00, 1015.9,    0.4, -999.0
26-11-2023, 00:24:52,    252,    0.0,   -1.5,   0.00,   0.00, 1015.9,    0.7, -999.0
26-11-2023, 00:25:02,    252,    0.0,   -1.7,   0.00,   0.00, 1015.9,    0.7, -999.0
26-11-2023, 00:25:12,    251,    0.0,   -1.6,   0.00,   0.00, 1016.0,    0.6, -999.0
26-11-2023, 00:25:22,    251,    0.0,   -1.6,   0.00,   0.00, 1015.9,    0.8, -999.0
26-11-2023, 00:25:32,    251,    0.0,   -1.6,   0.00,   0.00, 1015.9,    0.3, -999.0
26-11-2023, 00:25:42,    252,    0.0,   -1.6,   0.00,   0.00, 1015.9,    0.5, -999.0
26-11-2023, 00:25:52,    252,    0.0,   -1.6,   0.00,   0.00, 1015.9,    0.4, -999.0
26-11-2023, 00:26:02,    251,    0.0,   -1.7,   0.00,   0.00, 1015.9,    0.6, -999.0
26-11-2023, 00:26:12,    252,    0.0,   -1.7,   0.00,   0.00, 1016.0,    0.5, -999.0
26-11-2023, 00:26:22,    251,    0.0,   -1.6,   0.00,   0.00, 1015.9,    0.6, -999.0
26-11-2023, 00:26:32,    252,    0.0,   -1.7,   0.00,   0.00, 1015.9,    0.5, -999.0
26-11-2023, 00:26:42,    252,    0.0,   -1.6,   0.00,   0.00, 1015.9,    0.6, -999.0
26-11-2023, 00:26:52,    252,    0.0,   -1.6,   0.00,   0.00, 1015.9,    0.6, -999.0
26-11-2023, 00:27:02,    252,    0.0,   -1.5,   0.00,   0.00, 1015.9,    0.5, -999.0
26-11-2023, 00:27:11,    252,    0.0,   -1.6,   0.00,   0.00, 1015.9,    0.4, -999.0
26-11-2023, 00:27:22,    252,    0.0,   -1.6,   0.00,   0.00, 1015.9,    0.5, -999.0
26-11-2023, 00:27:32,    251,    0.0,   -1.6,   0.00,   0.00, 1015.9,    0.6, -999.0
26-11-2023, 00:27:42,    252,    0.0,   -1.6,   0.00,   0.00, 1015.9,    0.5, -999.0
26-11-2023, 00:27:51,    252,    0.0,   -1.6,   0.00,   0.00, 1015.9,    0.4, -999.0
26-11-2023, 00:28:02,    252,    0.0,   -1.7,   0.00,   0.00, 1015.9,    0.4, -999.0
26-11-2023, 00:28:12,    252,    0.0,   -1.6,   0.00,   0.00, 1015.9,    0.6, -999.0
26-11-2023, 00:28:21,    252,    0.0,   -1.7,   0.00,   0.00, 1015.9,    0.5, -999.0
26-11-2023, 00:28:32,    252,    0.0,   -1.6,   0.00,   0.00, 1015.9,    0.6, -999.0
26-11-2023, 00:28:42,    252,    0.0,   -1.6,   0.00,   0.00, 1015.9,    0.5, -999.0
26-11-2023, 00:28:51,    252,    0.0,   -1.6,   0.00,   0.00, 1015.9,    0.6, -999.0
26-11-2023, 00:29:01,    252,    0.0,   -1.6,   0.00,   0.00, 1015.9,    0.5, -999.0
26-11-2023, 00:29:12,    252,    0.0,   -1.7,   0.00,   0.00, 1015.9,    0.7, -999.0
26-11-2023, 00:29:22,    252,    0.0,   -1.7,   0.00,   0.00, 1015.9,    0.5, -999.0
26-11-2023, 00:29:31,    251,    0.0,   -1.7,   0.00,   0.00, 1015.9,    0.7, -999.0
26-11-2023, 00:29:41,    252,    0.0,   -1.6,   0.00,   0.00, 1015.9,    0.3, -999.0
26-11-2023, 00:29:52,    252,    0.0,   -1.7,   0.00,   0.00, 1015.9,    0.0, -999.0
26-11-2023, 00:30:01,    251,    0.0,   -1.7,   0.00,   0.00, 1015.9,    1.0, -999.0
26-11-2023, 00:30:11,    251,    0.0,   -1.7,   0.00,   0.00, 1015.9,    0.5, -999.0
26-11-2023, 00:30:21,    251,    0.0,   -1.6,   0.00,   0.00, 1015.9,    0.5, -999.0
26-11-2023, 00:30:32,    252,    0.0,   -1.6,   0.00,   0.00, 1015.9,    0.6, -999.0
26-11-2023, 00:30:41,    252,    0.0,   -1.6,   0.00,   0.00, 1015.9,    0.4, -999.0
26-11-2023, 00:30:51,    251,    0.0,   -1.6,   0.00,   0.00, 1015.9,    0.6, -999.0
26-11-2023, 00:31:01,    251,    0.0,   -1.6,   0.00,   0.00, 1015.9,    0.6, -999.0
26-11-2023, 00:31:11,    252,    0.0,   -1.6,   0.00,   0.00, 1015.9,    0.5, -999.0
26-11-2023, 00:31:21,    251,    0.0,   -1.6,   0.00,   0.00, 1015.9,    0.7, -999.0
26-11-2023, 00:31:31,    252,    0.0,   -1.6,   0.00,   0.00, 1015.9,    0.4, -999.0
26-11-2023, 00:31:41,    251,    0.0,   -1.6,   0.00,   0.00, 1015.9,    0.6, -999.0
26-11-2023, 00:31:51,    252,    0.0,   -1.8,   0.00,   0.00, 1015.9,    0.7, -999.0
26-11-2023, 00:32:01,    252,    0.0,   -1.7,   0.00,   0.00, 1015.9,    0.5, -999.0
26-11-2023, 00:32:11,    252,    0.0,   -1.6,   0.00,   0.00, 1015.9,    0.5, -999.0
26-11-2023, 00:32:21,    251,    0.0,   -1.7,   0.00,   0.00, 1015.9,    0.6, -999.0
26-11-2023, 00:32:31,    252,    0.0,   -1.6,   0.00,   0.00, 1015.9,    0.5, -999.0
26-11-2023, 00:32:41,    252,    0.0,   -1.6,   0.00,   0.00, 1015.9,    0.4, -999.0
26-11-2023, 00:32:51,    251,    0.0,   -1.5,   0.00,   0.00, 1015.9,    0.5, -999.0
26-11-2023, 00:33:01,    252,    0.0,   -1.6,   0.00,   0.00, 1015.9,    0.6, -999.0
26-11-2023, 00:33:11,    251,    0.0,   -1.6,   0.00,   0.00, 1015.9,    0.7, -999.0
26-11-2023, 00:33:21,    252,    0.0,   -1.6,   0.00,   0.00, 1015.9,    0.5, -999.0
26-11-2023, 00:33:31,    251,    0.0,   -1.6,   0.00,   0.00, 1015.9,    0.3, -999.0
26-11-2023, 00:33:41,    251,    0.0,   -1.6,   0.00,   0.00, 1015.9,    0.7, -999.0
26-11-2023, 00:33:51,    251,    0.0,   -1.6,   0.00,   0.00, 1015.9,    0.5, -999.0
26-11-2023, 00:34:01,    252,    0.0,   -1.6,   0.00,   0.00, 1015.9,    0.4, -999.0
26-11-2023, 00:34:11,    251,    0.0,   -1.6,   0.00,   0.00, 1015.9,    0.6, -999.0
26-11-2023, 00:34:21,    251,    0.0,   -1.7,   0.00,   0.00, 1015.9,    0.5, -999.0
26-11-2023, 00:34:31,    252,    0.0,   -1.7,   0.00,   0.00, 1015.9,    0.5, -999.0
26-11-2023, 00:34:41,    252,    0.0,   -1.6,   0.00,   0.00, 1015.9,    0.4, -999.0
26-11-2023, 00:34:51,    251,    0.0,   -1.7,   0.00,   0.00, 1015.9,    0.6, -999.0
26-11-2023, 00:35:01,    251,    0.0,   -1.7,   0.00,   0.00, 1015.9,    0.5, -999.0
26-11-2023, 00:35:11,    251,    0.0,   -1.8,   0.00,   0.00, 1015.9,    0.6, -999.0
26-11-2023, 00:35:21,    250,    0.0,   -1.7,   0.00,   0.00, 1015.9,    0.5, -999.0
26-11-2023, 00:35:31,    251,    0.0,   -1.6,   0.00,   0.00, 1015.9,    0.6, -999.0
26-11-2023, 00:35:41,    251,    0.0,   -1.7,   0.00,   0.00, 1015.9,    0.5, -999.0
26-11-2023, 00:35:51,    252,    0.0,   -1.6,   0.00,   0.00, 1015.9,    0.5, -999.0
26-11-2023, 00:36:01,    251,    0.0,   -1.6,   0.00,   0.00, 1015.9,    0.7, -999.0
26-11-2023, 00:36:11,    251,    0.0,   -1.6,   0.00,   0.00, 1015.9,    0.3, -999.0
26-11-2023, 00:36:21,    251,    0.0,   -1.6,   0.00,   0.00, 1015.9,    0.6, -999.0
26-11-2023, 00:36:31,    250,    0.0,   -1.6,   0.00,   0.00, 1015.9,    0.8, -999.0
26-11-2023, 00:36:41,    251,    0.0,   -1.7,   0.00,   0.00, 1015.9,    0.3, -999.0
26-11-2023, 00:36:50,    251,    0.0,   -1.7,   0.00,   0.00, 1015.9,    0.7, -999.0
26-11-2023, 00:37:01,    251,    0.0,   -1.7,   0.00,   0.00, 1015.9,    0.6, -999.0
26-11-2023, 00:37:11,    249,    0.0,   -1.6,   0.00,   0.00, 1015.9,    0.5, -999.0
26-11-2023, 00:37:21,    249,    0.0,   -1.6,   0.00,   0.00, 1015.9,    0.6, -999.0
26-11-2023, 00:37:31,    249,    0.0,   -1.7,   0.00,   0.00, 1015.9,    0.5, -999.0
26-11-2023, 00:37:41,    249,    0.0,   -1.7,   0.00,   0.00, 1015.9,    0.4, -999.0
26-11-2023, 00:37:51,    249,    0.0,   -1.6,   0.00,   0.00, 1015.9,    0.4, -999.0
26-11-2023, 00:38:00,    249,    0.0,   -1.7,   0.00,   0.00, 1015.9,    0.5, -999.0
26-11-2023, 00:38:11,    249,    0.0,   -1.7,   0.00,   0.00, 1015.9,    0.3, -999.0
26-11-2023, 00:38:21,    248,    0.0,   -1.6,   0.00,   0.00, 1015.9,    0.6, -999.0
26-11-2023, 00:38:31,    236,    0.0,   -1.6,   0.00,   0.00, 1015.9,    0.5, -999.0
26-11-2023, 00:38:40,    236,    0.0,   -1.6,   0.00,   0.00, 1015.9,    0.7, -999.0
26-11-2023, 00:38:51,    236,    0.0,   -1.7,   0.00,   0.00, 1015.9,    0.6, -999.0
26-11-2023, 00:39:01,    236,    0.0,   -1.7,   0.00,   0.00, 1015.9,    0.7, -999.0
26-11-2023, 00:39:10,    235,    0.0,   -1.6,   0.00,   0.00, 1015.9,    0.6, -999.0
26-11-2023, 00:39:20,    235,    0.0,   -1.7,   0.00,   0.00, 1015.9,    0.7, -999.0
26-11-2023, 00:39:31,    235,    0.0,   -1.7,   0.00,   0.00, 1015.9,    0.5, -999.0
26-11-2023, 00:39:40,    236,    0.0,   -1.6,   0.00,   0.00, 1015.9,    0.5, -999.0
26-11-2023, 00:39:50,    236,    0.0,   -1.7,   0.00,   0.00, 1015.9,    0.6, -999.0
26-11-2023, 00:40:00,    235,    0.0,   -1.6,   0.00,   0.00, 1015.9,    0.6, -999.0
26-11-2023, 00:40:11,    236,    0.0,   -1.6,   0.00,   0.00, 1015.9,    0.6, -999.0
26-11-2023, 00:40:20,    236,    0.0,   -1.6,   0.00,   0.00, 1015.9,    0.6, -999.0
26-11-2023, 00:40:30,    236,    0.0,   -1.6,   0.00,   0.00, 1015.9,    0.5, -999.0
26-11-2023, 00:40:41,    235,    0.0,   -1.7,   0.00,   0.00, 1015.9,    0.5, -999.0
26-11-2023, 00:40:50,    236,    0.0,   -1.8,   0.00,   0.00, 1015.9,    0.6, -999.0
26-11-2023, 00:41:00,    235,    0.0,   -1.6,   0.00,   0.00, 1015.9,    0.6, -999.0
26-11-2023, 00:41:10,    236,    0.0,   -1.7,   0.00,   0.00, 1015.9,    0.5, -999.0
26-11-2023, 00:41:20,    236,    0.0,   -1.7,   0.00,   0.00, 1015.9,    0.6, -999.0
26-11-2023, 00:41:30,    236,    0.0,   -1.7,   0.00,   0.00, 1015.9,    0.7, -999.0
26-11-2023, 00:41:40,    235,    0.0,   -1.8,   0.00,   0.00, 1015.9,    0.5, -999.0
26-11-2023, 00:41:50,    235,    0.0,   -1.7,   0.00,   0.00, 1015.9,    0.5, -999.0
26-11-2023, 00:42:00,    234,    0.0,   -1.7,   0.00,   0.00, 1015.9,    0.7, -999.0
26-11-2023, 00:42:10,    235,    0.0,   -1.7,   0.00,   0.00, 1015.9,    0.6, -999.0
26-11-2023, 00:42:20,    235,    0.0,   -1.8,   0.00,   0.00, 1015.9,    0.4, -999.0
26-11-2023, 00:42:30,    235,    0.0,   -1.7,   0.00,   0.00, 1015.9,    0.5, -999.0
26-11-2023, 00:42:40,    235,    0.0,   -1.7,   0.00,   0.00, 1015.9,    0.5, -999.0
26-11-2023, 00:42:50,    235,    0.0,   -1.8,   0.00,   0.00, 1015.9,    0.4, -999.0
26-11-2023, 00:43:00,    235,    0.0,   -1.7,   0.00,   0.00, 1015.9,    0.4, -999.0
26-11-2023, 00:43:10,    235,    0.0,   -1.7,   0.00,   0.00, 1015.9,    0.7, -999.0
26-11-2023, 00:43:20,    235,    0.0,   -1.7,   0.00,   0.00, 1015.9,    0.6, -999.0
26-11-2023, 00:43:30,    235,    0.0,   -1.8,   0.00,   0.00, 1015.9,    0.7, -999.0
26-11-2023, 00:43:40,    235,    0.0,   -1.8,   0.00,   0.00, 1015.9,    0.4, -999.0
26-11-2023, 00:43:50,    235,    0.0,   -1.7,   0.00,   0.00, 1015.9,    0.5, -999.0
26-11-2023, 00:44:00,    235,    0.0,   -1.8,   0.00,   0.00, 1015.9,    0.4, -999.0
26-11-2023, 00:44:10,    235,    0.0,   -1.7,   0.00,   0.00, 1015.9,    0.5, -999.0
26-11-2023, 00:44:20,    234,    0.0,   -1.7,   0.00,   0.00, 1015.9,    0.5, -999.0
26-11-2023, 00:44:30,    235,    0.0,   -1.7,   0.00,   0.00, 1015.9,    0.5, -999.0
26-11-2023, 00:44:40,    235,    0.0,   -1.7,   0.00,   0.00, 1015.9,    0.7, -999.0
26-11-2023, 00:44:50,    235,    0.0,   -1.7,   0.00,   0.00, 1015.9,    0.4, -999.0
26-11-2023, 00:45:00,    235,    0.0,   -1.7,   0.00,   0.00, 1015.9,    0.7, -999.0
26-11-2023, 00:45:10,    235,    0.0,   -1.7,   0.00,   0.00, 1015.9,    0.5, -999.0
26-11-2023, 00:45:20,    235,    0.0,   -1.7,   0.00,   0.00, 1015.9,    0.4, -999.0
26-11-2023, 00:45:30,    235,    0.0,   -1.7,   0.00,   0.00, 1015.9,    0.2, -999.0
26-11-2023, 00:45:40,    235,    0.0,   -1.7,   0.00,   0.00, 1015.9,    0.6, -999.0
26-11-2023, 00:45:50,    235,    0.0,   -1.8,   0.00,   0.00, 1015.9,    0.5, -999.0
26-11-2023, 00:46:00,    235,    0.0,   -1.6,   0.00,   0.00, 1015.9,    0.6, -999.0
26-11-2023, 00:46:10,    235,    0.0,   -1.7,   0.00,   0.00, 1015.9,    0.5, -999.0
26-11-2023, 00:46:20,    235,    0.0,   -1.8,   0.00,   0.00, 1015.9,    0.5, -999.0
26-11-2023, 00:46:30,    235,    0.0,   -1.7,   0.00,   0.00, 1015.9,    0.4, -999.0
26-11-2023, 00:46:40,    235,    0.0,   -1.6,   0.00,   0.00, 1015.9,    0.6, -999.0
26-11-2023, 00:46:50,    235,    0.0,   -1.7,   0.00,   0.00, 1015.9,    0.4, -999.0